| time (UTC) | temp C | wind direction | speed KPH | gust KPH | rain 1hr cm | rain 24hr cm | rain mn cm | humidity % | barometer mb |
| 20260506124005 | 17 | 234 | 14.5 | 25.7 | 0.00 | 0.74 | 0.00 | 61 | 1006.4 |
| 20260506123504 | 17 | 241 | 14.5 | 27.4 | 0.00 | 0.74 | 0.00 | 58 | 1006.4 |
| 20260506123005 | 17 | 235 | 14.5 | 29.0 | 0.00 | 0.74 | 0.00 | 58 | 1006.4 |
| 20260506122504 | 17 | 216 | 12.9 | 29.0 | 0.00 | 0.74 | 0.00 | 58 | 1007.4 |
| 20260506122005 | 17 | 227 | 14.5 | 29.0 | 0.00 | 0.74 | 0.00 | 58 | 1007.4 |
| 20260506121504 | 17 | 241 | 16.1 | 29.0 | 0.00 | 0.74 | 0.00 | 58 | 1007.4 |
| 20260506121004 | 17 | 236 | 14.5 | 29.0 | 0.00 | 0.74 | 0.00 | 58 | 1007.4 |
| 20260506120504 | 17 | 230 | 11.3 | 20.9 | 0.00 | 0.74 | 0.00 | 58 | 1007.4 |
| 20260506120004 | 17 | 244 | 12.9 | 30.6 | 0.00 | 0.74 | 0.00 | 56 | 1007.4 |
| 20260506115505 | 17 | 241 | 12.9 | 30.6 | 0.00 | 0.74 | 0.00 | 58 | 1007.4 |
| 20260506115004 | 17 | 229 | 14.5 | 24.1 | 0.00 | 0.74 | 0.00 | 60 | 1007.4 |
| 20260506114505 | 17 | 233 | 16.1 | 30.6 | 0.00 | 0.74 | 0.00 | 59 | 1007.4 |
| 20260506114005 | 17 | 234 | 14.5 | 30.6 | 0.00 | 0.74 | 0.00 | 59 | 1007.4 |
| 20260506113505 | 17 | 216 | 14.5 | 24.1 | 0.00 | 0.74 | 0.00 | 59 | 1007.4 |
| 20260506113004 | 17 | 228 | 16.1 | 29.0 | 0.00 | 0.74 | 0.00 | 57 | 1007.4 |
| 20260506112504 | 15 | 237 | 14.5 | 29.0 | 0.00 | 0.74 | 0.00 | 66 | 1007.4 |
| 20260506112005 | 15 | 233 | 14.5 | 27.4 | 0.00 | 0.74 | 0.00 | 66 | 1007.4 |
| 20260506111504 | 15 | 241 | 16.1 | 24.1 | 0.00 | 0.74 | 0.00 | 66 | 1007.4 |
| 20260506111004 | 15 | 258 | 16.1 | 30.6 | 0.00 | 0.74 | 0.00 | 66 | 1008.4 |
| 20260506110505 | 15 | 258 | 17.7 | 30.6 | 0.00 | 0.74 | 0.00 | 66 | 1008.4 |
| 20260506110005 | 15 | 255 | 14.5 | 22.5 | 0.00 | 0.74 | 0.00 | 66 | 1008.4 |
| 20260506105505 | 15 | 242 | 14.5 | 27.4 | 0.00 | 0.74 | 0.00 | 66 | 1008.4 |
| 20260506105004 | 15 | 221 | 11.3 | 27.4 | 0.00 | 0.74 | 0.00 | 66 | 1008.4 |
| 20260506104505 | 15 | 232 | 8.0 | 19.3 | 0.00 | 0.74 | 0.00 | 66 | 1008.4 |
| 20260506104004 | 15 | 231 | 9.7 | 19.3 | 0.00 | 0.74 | 0.00 | 66 | 1008.4 |
| 20260506103004 | 17 | 234 | 11.3 | 24.1 | 0.00 | 0.74 | 0.00 | 63 | 1008.4 |
| 20260506102504 | 17 | 232 | 12.9 | 24.1 | 0.00 | 0.74 | 0.00 | 63 | 1008.4 |
| 20260506102005 | 17 | 233 | 11.3 | 22.5 | 0.00 | 0.74 | 0.00 | 63 | 1008.4 |
| 20260506101504 | 17 | 231 | 11.3 | 22.5 | 0.00 | 0.74 | 0.00 | 63 | 1008.4 |
| 20260506101005 | 17 | 220 | 11.3 | 19.3 | 0.00 | 0.74 | 0.00 | 63 | 1008.4 |
| 20260506100504 | 17 | 214 | 12.9 | 22.5 | 0.00 | 0.74 | 0.00 | 63 | 1008.4 |
| 20260506100005 | 16 | 213 | 12.9 | 22.5 | 0.00 | 0.74 | 0.00 | 67 | 1008.4 |
| 20260506095505 | 16 | 228 | 11.3 | 20.9 | 0.00 | 0.74 | 0.00 | 67 | 1008.4 |
| 20260506095004 | 16 | 245 | 12.9 | 22.5 | 0.00 | 0.74 | 0.00 | 67 | 1008.4 |
| 20260506094504 | 16 | 254 | 12.9 | 22.5 | 0.00 | 0.74 | 0.00 | 67 | 1008.4 |
| 20260506094005 | 16 | 251 | 11.3 | 22.5 | 0.00 | 0.74 | 0.00 | 67 | 1008.4 |
| 20260506093505 | 16 | 245 | 12.9 | 22.5 | 0.00 | 0.74 | 0.00 | 67 | 1008.4 |
| 20260506093005 | 16 | 239 | 12.9 | 22.5 | 0.00 | 0.74 | 0.00 | 67 | 1008.4 |
| 20260506092504 | 16 | 238 | 11.3 | 25.7 | 0.00 | 0.74 | 0.00 | 67 | 1008.4 |
| 20260506092004 | 16 | 239 | 11.3 | 25.7 | 0.00 | 0.74 | 0.00 | 67 | 1008.4 |
| 20260506091504 | 14 | 237 | 12.9 | 22.5 | 0.00 | 0.74 | 0.00 | 73 | 1008.4 |
| 20260506091004 | 14 | 235 | 11.3 | 20.9 | 0.00 | 0.74 | 0.00 | 73 | 1008.4 |
| 20260506090504 | 14 | 238 | 12.9 | 29.0 | 0.00 | 0.74 | 0.00 | 73 | 1008.4 |
| 20260506090005 | 14 | 241 | 12.9 | 29.0 | 0.00 | 0.74 | 0.00 | 73 | 1008.4 |
| 20260506085505 | 14 | 238 | 12.9 | 27.4 | 0.00 | 0.74 | 0.00 | 73 | 1008.4 |
| 20260506085004 | 14 | 233 | 14.5 | 27.4 | 0.00 | 0.74 | 0.00 | 73 | 1008.4 |
| 20260506084505 | 14 | 228 | 14.5 | 27.4 | 0.00 | 0.74 | 0.00 | 73 | 1008.4 |
| 20260506084005 | 14 | 230 | 14.5 | 27.4 | 0.00 | 0.74 | 0.00 | 73 | 1008.4 |
| 20260506083505 | 14 | 237 | 14.5 | 27.4 | 0.00 | 0.74 | 0.00 | 73 | 1008.4 |
| 20260506083005 | 14 | 241 | 12.9 | 27.4 | 0.00 | 0.74 | 0.00 | 73 | 1008.4 |
| 20260506082504 | 14 | 235 | 12.9 | 27.4 | 0.00 | 0.74 | 0.00 | 73 | 1008.4 |
| 20260506082004 | 14 | 230 | 12.9 | 29.0 | 0.00 | 0.74 | 0.00 | 73 | 1008.4 |
| 20260506081504 | 14 | 230 | 12.9 | 29.0 | 0.00 | 0.74 | 0.00 | 79 | 1008.4 |
| 20260506081005 | 14 | 233 | 11.3 | 22.5 | 0.00 | 0.74 | 0.00 | 79 | 1008.4 |
| 20260506080504 | 13 | 244 | 12.9 | 24.1 | 0.00 | 0.74 | 0.00 | 81 | 1008.4 |
| 20260506073505 | 10 | 249 | 16.1 | 29.0 | 0.00 | 0.74 | 0.00 | 91 | 1008.4 |
| 20260506073005 | 10 | 252 | 12.9 | 27.4 | 0.00 | 0.74 | 0.00 | 91 | 1008.4 |
| 20260506072504 | 10 | 250 | 9.7 | 19.3 | 0.00 | 0.74 | 0.00 | 91 | 1008.4 |
| 20260506072004 | 10 | 252 | 9.7 | 20.9 | 0.00 | 0.74 | 0.00 | 91 | 1008.4 |
| 20260506071504 | 10 | 250 | 11.3 | 24.1 | 0.00 | 0.74 | 0.00 | 91 | 1008.4 |
| 20260506071005 | 10 | 244 | 11.3 | 24.1 | 0.00 | 0.74 | 0.00 | 91 | 1008.4 |
| 20260506070504 | 10 | 240 | 11.3 | 20.9 | 0.00 | 0.74 | 0.00 | 91 | 1008.4 |
| 20260506062505 | 9 | 230 | 12.9 | 20.9 | 0.00 | 0.74 | 0.00 | 97 | 1008.4 |
| 20260506062004 | 9 | 233 | 9.7 | 17.7 | 0.00 | 0.74 | 0.00 | 97 | 1008.4 |
| 20260506061504 | 9 | 235 | 9.7 | 16.1 | 0.00 | 0.74 | 0.00 | 97 | 1008.4 |
| 20260506061005 | 9 | 251 | 8.0 | 17.7 | 0.00 | 0.74 | 0.00 | 97 | 1007.4 |
| 20260506060504 | 9 | 235 | 8.0 | 17.7 | 0.00 | 0.74 | 0.00 | 97 | 1007.4 |
| 20260506051004 | 9 | 241 | 8.0 | 17.7 | 0.00 | 0.74 | 0.00 | 97 | 1007.4 |
| 20260506050505 | 8 | 244 | 9.7 | 17.7 | 0.00 | 0.74 | 0.00 | 97 | 1007.4 |
| 20260506045005 | 8 | 249 | 9.7 | 16.1 | 0.00 | 0.74 | 0.00 | 97 | 1007.4 |
| 20260506044505 | 8 | 248 | 8.0 | 17.7 | 0.00 | 0.74 | 0.00 | 97 | 1007.4 |
| 20260506044005 | 8 | 241 | 8.0 | 17.7 | 0.00 | 0.74 | 0.00 | 97 | 1007.4 |
| 20260506043505 | 8 | 239 | 9.7 | 17.7 | 0.00 | 0.74 | 0.00 | 97 | 1007.4 |
| 20260506043005 | 8 | 232 | 9.7 | 19.3 | 0.00 | 0.74 | 0.00 | 97 | 1007.4 |
| 20260506042505 | 8 | 231 | 9.7 | 19.3 | 0.00 | 0.74 | 0.00 | 97 | 1007.4 |
| 20260506042005 | 8 | 234 | 9.7 | 19.3 | 0.00 | 0.74 | 0.00 | 97 | 1007.4 |
| 20260506041505 | 8 | 235 | 6.4 | 17.7 | 0.00 | 0.74 | 0.00 | 97 | 1007.4 |
| 20260506041004 | 8 | 234 | 6.4 | 12.9 | 0.00 | 0.74 | 0.00 | 97 | 1006.4 |
| 20260506040505 | 8 | 234 | 4.8 | 12.9 | 0.00 | 0.74 | 0.00 | 97 | 1006.4 |
| 20260506040005 | 8 | 232 | 4.8 | 11.3 | 0.00 | 0.74 | 0.00 | 96 | 1006.4 |
| 20260506035505 | 8 | 226 | 4.8 | 12.9 | 0.00 | 0.74 | 0.00 | 96 | 1006.4 |
| 20260506035004 | 8 | 225 | 3.2 | 12.9 | 0.00 | 0.74 | 0.00 | 96 | 1006.4 |
| 20260506034505 | 8 | 217 | 3.2 | 9.7 | 0.00 | 0.74 | 0.00 | 96 | 1006.4 |
| 20260506034005 | 8 | 210 | 1.6 | 11.3 | 0.00 | 0.74 | 0.00 | 96 | 1007.4 |
| 20260506033505 | 8 | 209 | 1.6 | 11.3 | 0.00 | 0.74 | 0.00 | 96 | 1007.4 |
| 20260506033005 | 8 | 195 | 1.6 | 11.3 | 0.00 | 0.74 | 0.00 | 96 | 1007.4 |
| 20260506032505 | 8 | 208 | 3.2 | 11.3 | 0.00 | 0.74 | 0.00 | 96 | 1007.4 |
| 20260506032005 | 8 | 220 | 3.2 | 9.7 | 0.00 | 0.74 | 0.00 | 96 | 1007.4 |
| 20260506031505 | 8 | 230 | 3.2 | 9.7 | 0.00 | 0.74 | 0.00 | 96 | 1007.4 |
| 20260506031005 | 8 | 228 | 3.2 | 8.0 | 0.00 | 0.74 | 0.00 | 96 | 1007.4 |
| 20260506030505 | 8 | 241 | 1.6 | 8.0 | 0.00 | 0.74 | 0.00 | 96 | 1007.4 |
| 20260506030005 | 8 | 237 | 1.6 | 8.0 | 0.00 | 0.74 | 0.00 | 96 | 1007.4 |
| 20260506025504 | 8 | 224 | 1.6 | 8.0 | 0.00 | 0.74 | 0.00 | 96 | 1007.4 |
| 20260506025005 | 8 | 233 | 1.6 | 6.4 | 0.00 | 0.74 | 0.00 | 96 | 1007.4 |
| 20260506024505 | 8 | 249 | 3.2 | 9.7 | 0.00 | 0.74 | 0.00 | 96 | 1007.4 |
| 20260506024005 | 8 | 250 | 3.2 | 12.9 | 0.00 | 0.74 | 0.00 | 96 | 1007.4 |
| 20260506023505 | 8 | 246 | 3.2 | 12.9 | 0.00 | 0.74 | 0.00 | 96 | 1007.4 |
| 20260506023004 | 8 | 233 | 3.2 | 11.3 | 0.00 | 0.74 | 0.00 | 96 | 1007.4 |
| 20260506022505 | 8 | 220 | 3.2 | 11.3 | 0.00 | 0.74 | 0.00 | 96 | 1007.4 |
| 20260506022005 | 8 | 217 | 3.2 | 9.7 | 0.00 | 0.74 | 0.00 | 96 | 1007.4 |
| 20260506021505 | 9 | 249 | 4.8 | 12.9 | 0.00 | 0.74 | 0.00 | 96 | 1007.4 |
| 20260506021005 | 9 | 249 | 4.8 | 12.9 | 0.00 | 0.74 | 0.00 | 96 | 1007.4 |
| 20260506020504 | 9 | 237 | 6.4 | 14.5 | 0.00 | 0.74 | 0.00 | 96 | 1007.4 |
| 20260506020005 | 9 | 244 | 4.8 | 14.5 | 0.00 | 0.74 | 0.00 | 96 | 1007.4 |
| 20260506015504 | 9 | 246 | 3.2 | 12.9 | 0.00 | 0.74 | 0.00 | 96 | 1006.4 |
| 20260506015005 | 9 | 240 | 3.2 | 9.7 | 0.00 | 0.74 | 0.00 | 96 | 1006.4 |
| 20260506014505 | 9 | 246 | 4.8 | 9.7 | 0.00 | 0.74 | 0.00 | 96 | 1006.4 |
| 20260506014005 | 9 | 255 | 4.8 | 14.5 | 0.00 | 0.74 | 0.00 | 96 | 1007.4 |
| 20260506013504 | 9 | 252 | 6.4 | 14.5 | 0.00 | 0.74 | 0.00 | 96 | 1007.4 |
| 20260506013005 | 9 | 241 | 6.4 | 12.9 | 0.00 | 0.74 | 0.00 | 96 | 1007.4 |
| 20260506012504 | 9 | 237 | 6.4 | 12.9 | 0.00 | 0.74 | 0.00 | 96 | 1007.4 |
| 20260506012005 | 9 | 234 | 4.8 | 12.9 | 0.00 | 0.74 | 0.00 | 96 | 1007.4 |
| 20260506011504 | 9 | 236 | 6.4 | 12.9 | 0.00 | 0.74 | 0.00 | 96 | 1007.4 |
| 20260506011005 | 9 | 241 | 4.8 | 12.9 | 0.00 | 0.74 | 0.00 | 96 | 1007.4 |
| 20260506010504 | 9 | 243 | 3.2 | 11.3 | 0.00 | 0.74 | 0.00 | 96 | 1007.4 |
| 20260506010005 | 9 | 231 | 4.8 | 9.7 | 0.00 | 0.74 | 0.00 | 96 | 1007.4 |
| 20260506005505 | 9 | 222 | 4.8 | 9.7 | 0.00 | 0.74 | 0.00 | 96 | 1008.4 |
| 20260506005004 | 9 | 221 | 3.2 | 9.7 | 0.00 | 0.74 | 0.00 | 95 | 1008.4 |
| 20260506004505 | 9 | 223 | 3.2 | 9.7 | 0.00 | 0.74 | 0.00 | 95 | 1008.4 |
| 20260506004005 | 9 | 215 | 1.6 | 9.7 | 0.00 | 0.74 | 0.00 | 95 | 1007.4 |
| 20260506003505 | 10 | 231 | 1.6 | 9.7 | 0.00 | 0.74 | 0.00 | 95 | 1007.4 |
| 20260506003005 | 10 | 232 | 4.8 | 12.9 | 0.00 | 0.74 | 0.00 | 95 | 1007.4 |
| 20260506002505 | 10 | 233 | 4.8 | 12.9 | 0.00 | 0.74 | 0.00 | 96 | 1008.4 |
| 20260506002004 | 10 | 232 | 4.8 | 12.9 | 0.00 | 0.74 | 0.00 | 95 | 1008.4 |
| 20260506001504 | 10 | 222 | 4.8 | 12.9 | 0.00 | 0.74 | 0.00 | 95 | 1008.4 |
| 20260506001005 | 10 | 225 | 6.4 | 12.9 | 0.00 | 0.74 | 0.00 | 95 | 1008.4 |
| 20260506000504 | 10 | 228 | 8.0 | 16.1 | 0.00 | 0.74 | 0.00 | 95 | 1008.4 |
| 20260506000006 | 10 | 225 | 8.0 | 16.1 | 0.00 | 0.74 | 0.00 | 95 | 1008.4 |
| 20260505235505 | 10 | 230 | 6.4 | 14.5 | 0.00 | 0.74 | 0.00 | 95 | 1008.4 |
| 20260505235005 | 10 | 235 | 6.4 | 12.9 | 0.00 | 0.74 | 0.00 | 95 | 1008.4 |
| 20260505234505 | 10 | 235 | 6.4 | 12.9 | 0.00 | 0.74 | 0.00 | 95 | 1008.4 |
| 20260505234004 | 10 | 241 | 4.8 | 12.9 | 0.00 | 0.74 | 0.00 | 95 | 1008.4 |
| 20260505233504 | 10 | 240 | 4.8 | 12.9 | 0.00 | 0.74 | 0.00 | 96 | 1008.4 |
| 20260505233005 | 10 | 237 | 4.8 | 12.9 | 0.00 | 0.74 | 0.00 | 96 | 1008.4 |
| 20260505232505 | 10 | 234 | 3.2 | 12.9 | 0.00 | 0.74 | 0.00 | 96 | 1007.4 |
| 20260505232004 | 10 | 237 | 3.2 | 12.9 | 0.00 | 0.74 | 0.00 | 96 | 1007.4 |
| 20260505231505 | 10 | 239 | 4.8 | 11.3 | 0.00 | 0.74 | 0.00 | 96 | 1007.4 |
| 20260505231005 | 10 | 235 | 4.8 | 11.3 | 0.00 | 0.74 | 0.00 | 96 | 1008.4 |
| 20260505230504 | 10 | 232 | 4.8 | 12.9 | 0.00 | 0.74 | 0.00 | 96 | 1008.4 |
| 20260505230005 | 10 | 228 | 3.2 | 12.9 | 0.00 | 0.74 | 0.00 | 95 | 1008.4 |
| 20260505225505 | 10 | 232 | 1.6 | 11.3 | 0.00 | 0.74 | 0.00 | 95 | 1007.4 |
| 20260505225005 | 10 | 229 | 0.0 | 8.0 | 0.00 | 0.74 | 0.00 | 95 | 1007.4 |
| 20260505224505 | 10 | 225 | 0.0 | 3.2 | 0.00 | 0.74 | 0.00 | 95 | 1007.4 |
| 20260505224004 | 10 | 225 | 0.0 | 3.2 | 0.00 | 0.74 | 0.00 | 95 | 1008.4 |
| 20260505223505 | 10 | 238 | 0.0 | 4.8 | 0.00 | 0.74 | 0.00 | 95 | 1008.4 |
| 20260505223005 | 10 | 221 | 0.0 | 6.4 | 0.00 | 0.74 | 0.00 | 95 | 1008.4 |
| 20260505222505 | 10 | 218 | 1.6 | 8.0 | 0.00 | 0.74 | 0.00 | 95 | 1007.4 |
| 20260505222004 | 10 | 227 | 0.0 | 8.0 | 0.00 | 0.74 | 0.00 | 95 | 1007.4 |
| 20260505221505 | 10 | 255 | 0.0 | 9.7 | 0.00 | 0.74 | 0.00 | 95 | 1007.4 |
| 20260505221005 | 10 | 236 | 1.6 | 9.7 | 0.00 | 0.74 | 0.00 | 95 | 1008.4 |
| 20260505220505 | 10 | 231 | 1.6 | 8.0 | 0.00 | 0.74 | 0.00 | 95 | 1008.4 |
| 20260505220008 | 10 | 235 | 1.6 | 8.0 | 0.00 | 0.74 | 0.00 | 95 | 1008.4 |
| 20260505215505 | 10 | 205 | 1.6 | 8.0 | 0.00 | 0.74 | 0.74 | 95 | 1008.4 |
| 20260505215005 | 10 | 205 | 1.6 | 9.7 | 0.00 | 0.74 | 0.74 | 95 | 1008.4 |
| 20260505214505 | 10 | 215 | 3.2 | 12.9 | 0.00 | 0.74 | 0.74 | 95 | 1008.4 |
| 20260505214004 | 10 | 212 | 4.8 | 12.9 | 0.00 | 0.74 | 0.74 | 96 | 1008.4 |
| 20260505213505 | 11 | 208 | 1.6 | 12.9 | 0.00 | 0.74 | 0.74 | 96 | 1008.4 |
| 20260505213005 | 11 | 224 | 1.6 | 11.3 | 0.00 | 0.74 | 0.74 | 95 | 1008.4 |
| 20260505212505 | 11 | 218 | 1.6 | 11.3 | 0.00 | 0.74 | 0.74 | 96 | 1007.4 |
| 20260505212005 | 11 | 200 | 1.6 | 8.0 | 0.00 | 0.74 | 0.74 | 96 | 1007.4 |
| 20260505211504 | 10 | 193 | 1.6 | 11.3 | 0.00 | 0.74 | 0.74 | 93 | 1007.4 |
| 20260505211005 | 10 | 194 | 1.6 | 11.3 | 0.00 | 0.74 | 0.74 | 93 | 1007.4 |
| 20260505210505 | 10 | 221 | 0.0 | 8.0 | 0.00 | 0.74 | 0.74 | 93 | 1007.4 |
| 20260505210005 | 10 | 227 | 0.0 | 8.0 | 0.00 | 0.74 | 0.74 | 93 | 1007.4 |
| 20260505205505 | 10 | 227 | 0.0 | 8.0 | 0.00 | 0.74 | 0.74 | 93 | 1007.4 |
| 20260505205004 | 10 | 0 | 0.0 | 0.0 | 0.00 | 0.74 | 0.74 | 93 | 1007.4 |
| 20260505204505 | 10 | 0 | 0.0 | 0.0 | 0.00 | 0.74 | 0.74 | 93 | 1007.4 |
| 20260505204005 | 10 | 0 | 0.0 | 0.0 | 0.00 | 0.74 | 0.74 | 93 | 1008.4 |
| 20260505203505 | 10 | 0 | 0.0 | 0.0 | 0.00 | 0.74 | 0.74 | 93 | 1008.4 |
| 20260505203005 | 10 | 0 | 0.0 | 0.0 | 0.00 | 0.74 | 0.74 | 93 | 1008.4 |
| 20260505202505 | 10 | 0 | 0.0 | 0.0 | 0.00 | 0.74 | 0.74 | 93 | 1009.4 |
| 20260505202005 | 10 | 0 | 0.0 | 0.0 | 0.00 | 0.74 | 0.74 | 93 | 1009.4 |
| 20260505201505 | 10 | 0 | 0.0 | 0.0 | 0.00 | 0.74 | 0.74 | 93 | 1009.4 |
| 20260505201005 | 10 | 0 | 0.0 | 0.0 | 0.00 | 0.74 | 0.74 | 93 | 1008.4 |
| 20260505200505 | 10 | 0 | 0.0 | 0.0 | 0.00 | 0.74 | 0.74 | 93 | 1008.4 |
| 20260505200005 | 12 | 0 | 0.0 | 0.0 | 0.00 | 0.74 | 0.74 | 95 | 1008.4 |
| 20260505195505 | 12 | 0 | 0.0 | 0.0 | 0.00 | 0.74 | 0.74 | 95 | 1008.4 |
| 20260505195005 | 12 | 0 | 0.0 | 0.0 | 0.00 | 0.74 | 0.74 | 95 | 1008.4 |
| 20260505194505 | 12 | 0 | 0.0 | 0.0 | 0.00 | 0.74 | 0.74 | 95 | 1008.4 |
| 20260505194005 | 12 | 0 | 0.0 | 0.0 | 0.00 | 0.74 | 0.74 | 95 | 1008.4 |
| 20260505193504 | 12 | 0 | 0.0 | 0.0 | 0.00 | 0.74 | 0.74 | 95 | 1008.4 |
| 20260505193005 | 12 | 0 | 0.0 | 0.0 | 0.00 | 0.74 | 0.74 | 95 | 1008.4 |
| 20260505192504 | 12 | 0 | 0.0 | 0.0 | 0.00 | 0.74 | 0.74 | 95 | 1008.4 |
| 20260505192005 | 12 | 0 | 0.0 | 0.0 | 0.00 | 0.86 | 0.74 | 95 | 1008.4 |
| 20260505191505 | 12 | 0 | 0.0 | 0.0 | 0.00 | 0.86 | 0.74 | 95 | 1008.4 |
| 20260505191005 | 12 | 0 | 0.0 | 0.0 | 0.00 | 0.86 | 0.74 | 95 | 1007.4 |
| 20260505190504 | 12 | 158 | 0.0 | 3.2 | 0.00 | 0.86 | 0.74 | 95 | 1007.4 |
| 20260505190005 | 12 | 158 | 0.0 | 3.2 | 0.00 | 0.86 | 0.74 | 95 | 1007.4 |
| 20260505185504 | 12 | 0 | 0.0 | 0.0 | 0.00 | 0.86 | 0.74 | 95 | 1007.4 |
| 20260505185005 | 12 | 192 | 0.0 | 4.8 | 0.00 | 0.86 | 0.74 | 95 | 1007.4 |
| 20260505184504 | 12 | 208 | 0.0 | 4.8 | 0.00 | 0.86 | 0.74 | 95 | 1007.4 |
| 20260505184005 | 12 | 248 | 0.0 | 3.2 | 0.00 | 0.86 | 0.74 | 95 | 1007.4 |
| 20260505183504 | 12 | 203 | 0.0 | 4.8 | 0.00 | 0.86 | 0.74 | 95 | 1007.4 |
| 20260505183005 | 12 | 199 | 1.6 | 9.7 | 0.00 | 0.99 | 0.74 | 95 | 1007.4 |
| 20260505182505 | 12 | 215 | 1.6 | 9.7 | 0.00 | 0.99 | 0.74 | 95 | 1007.4 |
| 20260505182005 | 12 | 231 | 4.8 | 12.9 | 0.00 | 0.99 | 0.74 | 95 | 1007.4 |
| 20260505181505 | 12 | 239 | 6.4 | 17.7 | 0.00 | 0.99 | 0.74 | 95 | 1007.4 |
| 20260505181005 | 12 | 236 | 8.0 | 17.7 | 0.00 | 1.12 | 0.74 | 95 | 1007.4 |
| 20260505180505 | 12 | 220 | 6.4 | 16.1 | 0.00 | 1.24 | 0.74 | 95 | 1007.4 |
| 20260505180006 | 12 | 215 | 4.8 | 16.1 | 0.00 | 1.24 | 0.74 | 95 | 1007.4 |
| 20260505175504 | 12 | 234 | 6.4 | 16.1 | 0.00 | 1.24 | 0.74 | 95 | 1007.4 |
| 20260505175005 | 12 | 243 | 8.0 | 16.1 | 0.00 | 1.45 | 0.74 | 95 | 1007.4 |
| 20260505174505 | 12 | 248 | 8.0 | 14.5 | 0.00 | 1.45 | 0.74 | 95 | 1007.4 |
| 20260505174005 | 12 | 241 | 8.0 | 16.1 | 0.00 | 1.70 | 0.74 | 95 | 1007.4 |
| 20260505173504 | 12 | 250 | 11.3 | 19.3 | 0.00 | 1.83 | 0.74 | 95 | 1007.4 |
| 20260505173005 | 12 | 254 | 9.7 | 19.3 | 0.00 | 1.83 | 0.74 | 95 | 1007.4 |
| 20260505172505 | 12 | 235 | 8.0 | 14.5 | 0.00 | 1.96 | 0.74 | 95 | 1007.4 |
| 20260505172005 | 12 | 225 | 8.0 | 14.5 | 0.00 | 2.08 | 0.74 | 95 | 1007.4 |
| 20260505171505 | 12 | 219 | 6.4 | 14.5 | 0.00 | 2.08 | 0.74 | 95 | 1007.4 |
| 20260505171005 | 12 | 218 | 4.8 | 11.3 | 0.00 | 2.08 | 0.74 | 95 | 1008.4 |
| 20260505170505 | 12 | 230 | 4.8 | 11.3 | 0.00 | 2.08 | 0.74 | 93 | 1008.4 |
| 20260505170005 | 12 | 234 | 3.2 | 11.3 | 0.00 | 2.08 | 0.74 | 94 | 1008.4 |
| 20260505165505 | 12 | 223 | 1.6 | 8.0 | 0.18 | 2.08 | 0.74 | 94 | 1008.4 |
| 20260505165005 | 12 | 212 | 3.2 | 8.0 | 0.18 | 2.08 | 0.74 | 93 | 1008.4 |
| 20260505164504 | 11 | 205 | 3.2 | 8.0 | 0.18 | 2.08 | 0.74 | 93 | 1008.4 |
| 20260505164005 | 11 | 196 | 3.2 | 12.9 | 0.18 | 2.08 | 0.74 | 93 | 1008.4 |
| 20260505163505 | 11 | 196 | 3.2 | 12.9 | 0.18 | 2.08 | 0.74 | 93 | 1008.4 |
| 20260505163005 | 12 | 210 | 1.6 | 12.9 | 0.33 | 2.08 | 0.74 | 93 | 1008.4 |
| 20260505162505 | 12 | 221 | 1.6 | 4.8 | 0.33 | 2.08 | 0.74 | 93 | 1008.4 |
| 20260505162005 | 12 | 232 | 1.6 | 11.3 | 0.33 | 2.08 | 0.74 | 92 | 1008.4 |
| 20260505161505 | 12 | 237 | 3.2 | 11.3 | 0.33 | 2.08 | 0.74 | 92 | 1008.4 |
| 20260505161005 | 12 | 252 | 4.8 | 12.9 | 0.33 | 2.08 | 0.74 | 92 | 1008.4 |
| 20260505160504 | 12 | 252 | 6.4 | 12.9 | 0.48 | 2.08 | 0.74 | 92 | 1008.4 |
| 20260505153006 | 12 | 240 | 12.9 | 20.9 | 0.23 | 1.88 | 0.41 | 90 | 1008.4 |
| 20260505152504 | 12 | 247 | 12.9 | 27.4 | 0.23 | 1.88 | 0.41 | 90 | 1007.4 |
| 20260505152005 | 12 | 256 | 12.9 | 27.4 | 0.23 | 1.88 | 0.41 | 90 | 1007.4 |
| 20260505151505 | 12 | 255 | 12.9 | 25.7 | 0.23 | 1.88 | 0.41 | 89 | 1007.4 |
| 20260505151004 | 12 | 243 | 11.3 | 17.7 | 0.23 | 1.88 | 0.41 | 89 | 1007.4 |
| 20260505150504 | 12 | 251 | 16.1 | 27.4 | 0.10 | 1.75 | 0.28 | 88 | 1007.4 |
| 20260505140505 | 15 | 273 | 20.9 | 41.8 | 0.18 | 2.79 | 0.18 | 76 | 1006.4 |
| 20260505125005 | 20 | 272 | 11.3 | 22.5 | 0.00 | 3.20 | 0.00 | 56 | 1005.3 |
| 20260505124504 | 20 | 241 | 8.0 | 17.7 | 0.00 | 3.20 | 0.00 | 58 | 1005.3 |